SCP
0 0 0 0 0 0 0 0 0 0 0 0 0 0 0 0 0 0 0 0 0 0 0 0 0 0 0 0 0 0 0 0 0 0 0 0 0 0 0 0 0 0 0
0 0 0 0 0 0 0 0 0 0 0 0 0 0 0 0 0 0 0 0 0 0 0 0 0 0 0 0 0 0 0 0 0 0 0 0 0 0 0 0 0 0 0
0 0 0 0 0 0 0 0 0 0 0 0 0 0 0 0 0 0 0 0 0 0 0 0 0 0 0 0 0 0 0 0 0 0 0 0 0 0 0 0 0 0 0
0 0 0 0 0 0 0 0 0 0 0 0 0 0 0 0 0 0 0 0 0 0 0 0 0 0 0 0 0 0 0 0 0 0 0 0 0 0 0 0 0 0 0
0 0 0 0 0 0 0 0 0 0 0 0 0 0 0 0 0 0 0 0 0 0 0 0 0 0 0 0 0 0 0 0 0 0 0 0 0 0 0 0 0 0 0
0 0 0 0 0 0 0 0 0 0 0 0 0 0 0 0 0 0 0 0 0 0 0 0 0 0 0 0 0 0 0 0 0 0 0 0 0 0 0 0 0 0 0
0 0 0 0 0 0 0 0 0 0 0 0 0 0 0 0 0 0 0 0 0 0 0 0 0 0 0 0 0 0 0 0 0 0 0 0 0 0 0 0 0 0 0
0 0 0 0 0 0 0 0 0 0 0 0 0 0 0 0 0 0 0 0 0 0 0 0 0 0 0 0 0 0 0 0 0 0 0 0 0 0 0 0 0 0 0
0 0 0 0 0 0 0 0 0 0 0 0 0 0 0 0 0 0 0 0 0 0 0 0 0 0 0 0 0 0 0 0 0 0 0 0 0 0 0 0 0 0 0
0 0 0 0 0 0 0 0 0 0 0 0 0 0 0 0 0 0 0 0 0 0 0 0 0 0 0 0 0 0 0 0 0 0 0 0 0 0 0 0 0 0 0
0 0 0 0 0 0 0 0 0 0 0 0 0 0 0 0 0 0 0 0 0 0 0 0 0 0 0 0 0 0 0 0 0 0 0 0 0 0 0 0 0 0 0
0 0 0 0 0 0 0 0 0 0 0 0 0 0 0 0 0 0 0 0 0 0 0 0 0 0 0 0 0 0 0 0 0 0 0 0 0 0 0 0 0 0 0
0 0 0 0 0 0 0 0 0 0 0 0 0 0 0 0 0 0 0 0 0 0 0 0 0 0 0 0 0 0 0 0 0 0 0 0 0 0 0 0 0 0 0
0 0 0 0 0 0 0 0 0 0 0 0 0 0 0 0 0 0 0 0 0 0 0 0 0 0 0 0 0 0 0 0 0 0 0 0 0 0 0 0 0 0 0
0 0 0 0 0 0 0 0 0 0 0 0 0 0 0 0 0 0 0 0 0 0 0 0 0 0 0 0 0 0 0 0 0 0 0 0 0 0 0 0 0 0 0
0 0 0 0 0 0 0 0 0 0 0 0 0 0 0 0 0 0 0 0 0 0 0 0 0 0 0 0 0 0 0 0 0 0 0 0 0 0 0 0 0 0 0
0 0 0 0 0 0 0 0 0 0 0 0 0 0 0 0 0 0 0 0 0 0 0 0 0 0 0 0 0 0 0 0 0 0 0 0 0 0 0 0 0 0 0
0 0 0 0 0 0 0 0 0 0 0 0 0 0 0 0 0 0 0 0 0 0 0 0 0 0 0 0 0 0 0 0 0 0 0 0 0 0 0 0 0 0 0
0 0 0 0 0 0 0 0 0 0 0 0 0 0 0 0 0 0 0 0 0 0 0 0 0 0 0 0 0 0 0 0 0 0 0 0 0 0 0 0 0 0 0
0 0 0 0 0 0 0 0 0 0 0 0 0 0 0 0 0 0 0 0 0 0 0 0 0 0 0 0 0 0 0 0 0 0 0 0 0 0 0 0 0 0 0
0 0 0 0 0 0 0 0 0 0 0 0 0 0 0 0 0 0 0 0 0 0 0 0 0 0 0 0 0 0 0 0 0 0 0 0 0 0 0 0 0 0 0
0 0 0 0 0 0 0 0 0 0 0 0 0 0 0 0 0 0 0 0 0 0 0 0 0 0 0 0 0 0 0 0 0 0 0 0 0 0 0 0 0 0 0
0 0 0 0 0 0 0 0 0 0 0 0 0 0 0 0 0 0 0 0 0 0 0 0 0 0 0 0 0 0 0 0 0 0 0 0 0 0 0 0 0 0 0
0 0 0 0 0 0 0 0 0 0 0 0 0 0 0 0 0 0 0 0 0 0 0 0 0 0 0 0 0 0 0 0 0 0 0 0 0 0 0 0 0 0 0
0 0 0 0 0 0 0 0 0 0 0 0 0 0 0 0 0 0 0 0 0 0 0 0 0 0 0 0 0 0 0 0 0 0 0 0 0 0 0 0 0 0 0
1 1 1 1 1 1 0 0 0 0 0 0 0 0 0 0 0 0 0 0 0 0 0 0 0 0 0 0 0 0 0 0 0 0 0 0 0 0 0 0 0 0 0
Wind_Speed
1 1 5 8 10 11 12 13 13 13 13 14 14 14 15 15 15 15 16 17 17 17 17 17 17 16 17 17 17 16 15 15 15 14 15 15 14 13 13 14 13 9 14
3 3 8 10 11 12 13 13 14 14 14 14 14 14 14 15 15 16 16 16 16 16 16 16 16 16 16 16 16 15 15 14 14 14 14 13 13 12 12 13 12 9 13
5 4 7 10 12 12 13 13 14 14 14 14 14 14 14 14 15 15 15 15 15 16 15 15 15 15 15 15 14 14 14 14 13 13 12 6 8 11 11 13 13 13 13
6 4 7 10 11 12 13 13 13 14 14 14 14 13 13 14 14 15 15 15 15 15 15 14 14 14 14 14 13 12 13 13 12 11 6 4 5 10 12 13 13 13 12
4 4 7 11 12 13 13 13 13 14 14 14 13 13 13 13 13 14 14 14 14 14 14 13 13 13 13 12 11 11 11 11 11 8 5 4 4 9 11 12 13 12 12
4 4 7 12 13 13 13 13 13 13 13 13 13 13 12 13 13 13 14 14 14 14 14 13 13 12 11 11 10 9 9 10 8 5 4 4 4 9 11 12 12 12 11
5 4 7 13 13 13 13 13 13 13 13 13 12 12 12 12 13 13 13 13 13 13 13 13 12 11 10 10 9 8 8 9 5 4 4 4 5 10 11 11 11 11 11
7 6 6 12 13 12 12 12 12 12 12 12 13 12 12 12 12 13 13 13 13 12 12 12 11 11 10 9 8 7 7 7 6 5 4 4 8 11 12 11 11 11 11
7 6 5 5 8 11 11 11 12 12 12 13 13 12 12 12 12 12 12 12 12 12 11 11 11 10 9 8 7 6 6 7 4 3 5 4 9 12 12 11 11 11 11
6 6 5 4 4 4 6 10 11 12 12 13 12 12 12 12 12 12 10 11 11 11 11 10 10 9 8 7 6 5 5 5 3 3 2 5 10 11 12 12 11 12 11
6 4 4 4 4 4 4 7 8 10 10 10 9 10 8 4 5 6 8 10 11 11 10 10 9 8 7 6 6 5 3 2 2 2 3 7 10 11 11 11 11 12 11
5 4 4 4 4 4 4 4 3 4 4 4 3 4 4 3 3 4 6 10 11 10 9 8 8 6 4 2 3 3 2 3 2 2 4 9 10 11 11 11 11 11 11
6 5 4 4 4 4 3 4 2 2 3 3 3 3 3 3 2 1 2 3 4 6 4 4 3 2 2 2 2 2 2 2 2 2 4 9 10 11 11 12 11 11 11
6 5 5 5 5 4 4 3 3 2 2 2 2 3 3 2 2 2 2 2 1 1 2 1 1 1 2 2 3 3 3 2 2 2 4 9 9 11 12 12 12 12 12
6 5 5 5 5 4 4 3 4 3 3 3 2 3 4 3 3 2 2 2 2 2 2 2 2 2 2 2 3 4 3 3 4 3 3 9 10 10 11 12 12 12 12
6 5 5 5 5 5 4 3 3 3 3 3 2 3 3 3 3 3 2 2 2 2 2 3 3 2 2 2 3 3 3 3 3 4 3 6 10 10 11 12 12 12 12
6 6 5 5 5 5 4 4 3 3 3 3 2 2 3 3 3 3 3 2 2 2 3 2 2 2 2 2 2 3 3 3 3 4 4 3 4 8 10 11 11 11 12
7 6 5 6 5 4 4 3 3 3 3 2 2 2 3 3 3 3 2 2 2 2 2 2 2 2 1 1 1 2 2 3 3 4 3 3 3 4 7 10 10 11 12
7 7 5 5 5 4 4 3 3 2 3 2 2 2 2 3 3 3 2 1 1 2 2 2 2 2 2 2 2 1 1 2 3 4 4 4 4 4 4 7 10 11 12
7 6 5 5 4 4 3 2 2 2 1 1 1 2 3 3 3 3 2 1 1 2 1 1 2 1 2 2 2 1 1 2 2 3 4 4 4 5 4 5 5 7 10
7 6 6 5 4 3 2 2 2 1 1 1 1 2 3 3 3 3 2 1 2 2 2 2 1 1 1 1 2 1 2 1 2 2 2 2 3 3 3 4 3 3 4
8 6 6 5 4 4 3 2 2 2 2 2 1 1 2 3 3 3 3 2 2 2 1 1 2 1 1 2 2 2 1 3 2 1 1 2 2 2 3 4 4 4 3
8 8 7 5 5 4 4 2 2 2 1 1 0 1 2 3 3 3 3 2 2 2 2 2 2 3 1 1 2 3 2 2 2 2 1 1 1 2 2 2 3 4 4
9 8 7 6 5 4 4 3 3 3 2 2 2 1 1 2 3 3 3 3 2 2 2 2 2 2 2 1 1 1 2 3 2 1 2 1 1 2 2 2 3 3 3
9 8 7 6 5 4 4 4 4 2 2 1 1 2 1 1 2 3 3 3 3 2 2 2 2 2 2 2 1 1 0 0 2 2 2 2 2 2 2 2 2 2 3
7 7 6 6 5 5 5 4 4 4 3 2 2 2 2 1 1 2 3 3 3 2 2 2 2 2 2 2 1 1 2 1 2 2 2 2 2 2 2 1 1 2 2
Wind_Direction
245 217 132 125 123 119 116 116 114 116 117 116 116 116 116 117 119 122 127 130 131 131 131 130 129 129 131 131 132 131 131 129 127 126 125 125 124 124 125 122 119 118 118
189 170 128 120 124 124 119 118 117 118 119 119 118 120 119 118 121 124 127 129 130 131 132 132 131 131 131 132 132 132 132 131 129 127 127 127 127 127 127 125 123 124 122
137 133 123 119 123 125 123 120 120 122 122 122 121 121 122 121 123 125 126 129 130 130 131 135 134 133 133 134 133 132 133 132 130 128 125 119 127 129 130 130 128 128 126
125 126 125 124 125 125 125 124 123 124 125 123 122 122 124 124 126 127 127 129 130 130 130 133 134 134 135 136 135 134 135 134 133 133 124 125 131 134 135 135 131 132 131
114 127 132 127 125 125 124 125 127 128 127 127 127 126 126 128 129 131 131 131 132 133 134 135 136 137 138 137 137 137 139 139 138 132 127 132 135 143 142 141 140 139 137
102 125 132 129 127 125 124 125 128 129 129 131 133 132 132 132 131 133 135 134 134 136 138 139 139 139 139 140 141 143 143 143 137 130 135 146 152 154 151 149 147 144 143
95 110 130 130 129 129 127 128 129 131 132 135 137 138 137 136 136 137 138 138 138 139 142 143 143 144 147 147 146 148 146 149 141 141 147 154 161 161 159 155 152 151 149
104 103 118 128 129 131 132 131 132 130 134 139 139 139 138 138 138 139 142 143 144 145 145 146 150 152 155 157 156 152 148 155 149 150 153 161 166 164 164 161 159 157 155
100 100 101 113 125 132 133 134 134 133 131 134 137 138 138 140 142 145 148 150 150 152 151 152 153 154 156 160 158 153 150 156 146 149 161 163 167 166 167 166 165 163 161
95 96 97 94 100 115 129 137 138 134 131 131 134 136 140 145 148 152 152 155 157 158 159 158 159 157 159 163 159 149 148 152 147 156 157 170 173 171 169 170 170 168 167
99 95 101 101 100 109 120 136 136 133 132 133 133 135 134 129 139 152 161 163 165 166 168 168 168 168 167 170 172 166 152 145 147 155 165 174 177 177 175 174 174 174 173
122 121 115 115 113 114 124 114 111 118 117 116 117 123 118 122 136 153 166 169 172 172 173 176 177 174 170 162 174 182 149 151 159 166 174 173 176 179 179 178 180 180 178
143 134 129 132 133 130 117 114 108 103 106 110 118 121 119 115 119 129 137 165 168 176 173 172 173 167 165 167 165 167 160 162 162 170 178 176 179 182 181 182 184 185 185
130 132 134 133 130 128 122 120 121 120 123 126 129 133 127 121 129 138 128 136 142 149 151 149 151 170 173 181 178 175 172 166 171 169 183 180 183 183 184 186 188 191 191
130 131 132 128 124 122 117 126 124 128 132 133 127 133 136 134 138 139 135 146 164 154 158 164 172 174 177 185 184 176 178 176 176 172 183 183 183 185 187 190 192 195 196
139 138 132 122 118 115 116 119 121 124 125 121 121 127 134 134 136 135 137 149 158 159 167 168 169 169 172 173 169 172 170 172 176 178 182 191 193 193 195 196 197 198 200
139 133 132 126 116 115 118 120 117 117 124 131 137 137 132 133 137 135 133 146 160 156 150 146 151 141 161 168 160 174 175 178 177 181 183 189 197 201 200 202 204 208 208
136 132 137 132 123 121 123 116 113 118 124 130 135 138 142 146 140 134 136 155 159 140 142 148 144 140 162 179 188 190 173 176 183 180 183 188 195 207 210 212 213 215 215
147 143 139 129 132 132 129 122 117 118 124 133 134 139 153 152 138 129 143 174 154 136 144 158 147 157 166 184 196 195 184 181 186 192 194 198 201 207 211 218 219 218 218
150 145 143 137 140 136 122 104 95 98 121 133 145 155 155 156 142 129 142 167 142 133 134 142 153 159 173 181 184 184 203 207 193 201 207 206 207 210 210 216 219 223 223
149 148 151 146 153 138 125 128 132 149 167 163 179 177 167 166 154 146 155 156 150 153 165 159 147 159 181 148 105 35 351 305 216 216 203 195 210 215 206 210 213 218 226
161 160 159 160 159 160 158 155 157 157 176 183 186 177 177 171 164 160 164 170 168 150 153 159 144 142 178 147 139 113 5 346 337 242 202 204 214 212 215 216 218 218 226
167 169 168 169 164 165 158 132 111 84 61 58 268 212 192 174 169 165 160 166 171 162 175 182 165 154 170 222 168 148 154 222 295 330 294 234 213 213 226 216 215 218 220
178 174 167 168 166 167 156 145 150 155 174 207 203 203 201 170 172 173 165 168 170 166 175 198 179 164 155 196 249 208 181 169 167 286 318 306 253 234 234 231 229 223 221
175 172 169 168 171 172 165 166 164 169 186 195 179 178 197 195 184 177 166 165 172 175 180 182 168 166 167 180 202 210 187 169 162 170 260 304 314 282 250 234 234 228 221
165 166 166 165 175 176 173 172 173 177 177 160 171 179 199 203 204 198 176 172 178 178 182 185 185 181 184 181 192 180 173 181 197 173 201 255 278 286 288 261 239 238 229